User: anonymous   Login
Location: Columbia
(38.9520°N, 92.3340°W)
Time: 07:30:04
(UTC-05:00)
Language:

SJ-11-01 - Orbit

View from above orbital plane
View from above orbital plane
View from above satellite
View from above satellite

Ground track
Ground track

The orbit data is extracted from the following two-line orbital elements,

1 36088U 09061A   14295.16352377  .00000607  00000-0  13521-3 0  5091
2 36088 098.0209 339.5453 0012390 048.5939 311.6346 14.60177049263262
Epoch (UTC): 22 October 2014 03:55:28
Eccentricity: 0.0012390
inclination: 98.0209°
perigee height: 684 km
apogee height: 701 km
right ascension of ascending node: 339.5453°
argument of perigee: 48.5939°
revolutions per day: 14.60177049
mean anomaly at epoch: 311.6346°
orbit number at epoch: 26326

The dashed part of the orbit path shows where the satellite is in the earth's shadow,  

DLR